Location: Unspecified
(0.0000°N, 0.0000°E)
Time: 19:04:47
(UTC+00:00)

Altair - Pass Details

Date: 22 November 2019
Orbit: 1502 x 1682 km, 47.2° (Epoch: 08 December)

Event Time Altitude Azimuth Distance (km) Brightness Sun altitude
Rises 09:08:41 0° 344° (NNW) 4,701 9.8 46.6°
Reaches altitude 10° 09:12:32 10° 358° (N) 3,748 9.4 47.4°
Maximum altitude 09:19:51 25° 49° (NE) 2,829 9.4 49.0°
Drops below altitude 10° 09:27:20 10° 99° (E) 3,867 10.4 50.6°
Sets 09:31:19 0° 112° (ESE) 4,881 10.7 51.4°
